Probability
0 0 0 0 0 0 0 0 0 0 0 0 0 0 0 0 0 0 0 0 0 0 0 0 0 0 0 0 0 0 0 0 0 0 0 0 3 0
0 0 0 0 0 0 0 0 0 0 0 0 0 0 0 0 0 0 0 0 0 0 0 0 0 0 0 0 0 0 0 0 0 0 0 0 0 0
0 0 0 0 0 0 0 0 0 0 0 0 0 0 0 0 0 0 0 0 0 0 0 0 0 0 0 0 0 0 0 0 0 0 0 0 0 0
0 0 0 0 0 0 0 0 0 0 0 0 0 0 0 0 0 0 0 0 0 0 0 0 0 0 0 0 0 0 0 0 0 0 0 0 0 0
0 0 0 0 0 0 0 0 0 0 0 0 0 0 0 0 0 0 0 0 0 0 0 0 0 0 0 0 0 0 0 0 0 0 0 0 0 0
0 0 0 0 0 0 0 0 0 0 0 0 0 0 0 0 0 0 0 0 0 0 0 0 0 0 0 0 0 0 0 0 0 0 0 0 0 0
0 0 0 0 0 0 0 0 0 0 0 0 0 0 0 0 0 0 0 0 0 0 0 0 0 0 0 0 0 0 0 0 0 0 0 0 0 0
0 0 0 0 0 0 0 0 0 0 0 0 0 0 0 0 0 0 0 0 0 0 0 0 0 0 0 0 0 0 0 0 0 0 0 0 0 0
0 0 0 0 0 0 0 0 0 0 0 0 0 0 0 0 0 0 0 0 0 0 0 0 0 0 0 0 0 0 0 0 0 0 0 0 0 0
0 0 0 0 0 0 0 0 0 0 0 0 0 0 0 0 0 0 0 0 0 0 0 0 0 0 0 0 0 0 0 0 0 0 0 0 0 0
0 0 0 0 0 0 0 0 0 0 0 0 0 0 0 0 0 0 0 0 0 0 0 0 0 0 0 0 0 0 0 0 0 0 0 0 0 0
0 0 0 0 0 0 0 0 0 0 0 0 0 0 0 0 0 0 0 0 0 0 0 0 0 0 0 0 0 0 0 0 0 0 0 0 0 0
0 0 0 0 0 0 0 0 0 0 0 0 0 0 0 0 0 0 0 0 0 0 0 0 0 0 0 0 0 0 0 0 0 0 0 0 0 0
0 0 0 0 0 0 0 0 0 0 0 0 0 0 0 0 0 0 0 0 0 0 0 0 0 0 0 0 0 0 0 0 0 0 0 0 0 0
0 0 0 0 0 0 0 0 0 0 0 0 0 0 0 0 0 0 0 0 0 0 0 0 0 0 0 0 0 0 0 0 0 0 0 0 0 0
0 0 0 0 0 0 0 0 0 0 0 0 0 0 0 0 0 0 0 0 0 0 0 0 0 0 0 0 0 0 0 0 0 0 0 0 0 0
0 0 0 0 0 0 0 0 0 0 0 0 0 0 0 0 0 0 0 0 0 0 0 0 0 0 0 0 0 0 0 0 0 0 0 0 0 0
0 0 0 0 0 0 0 0 0 0 0 0 0 0 0 0 0 0 0 0 0 0 0 0 0 0 0 0 0 0 0 0 0 0 0 0 0 0
0 0 0 0 0 0 0 0 0 0 0 0 0 0 0 0 0 0 0 0 0 0 0 0 0 0 0 0 0 0 0 0 0 0 0 0 0 0
0 0 0 0 0 0 0 0 0 0 0 0 0 0 0 0 0 0 0 0 0 0 0 0 0 0 0 0 0 0 0 0 0 0 0 0 0 0
0 0 0 0 0 0 0 0 0 0 0 0 0 0 0 0 0 0 0 0 0 0 0 0 0 0 0 0 0 0 0 0 0 0 0 0 0 0
0 0 0 0 0 0 0 0 0 0 0 0 0 0 0 0 0 0 0 0 0 0 0 0 0 0 0 0 0 0 0 0 0 0 0 0 0 0
0 0 0 0 0 0 0 0 0 0 0 0 0 0 0 0 0 0 0 0 0 0 0 0 0 0 0 0 0 0 0 0 0 0 0 0 0 0
Height
5792 5792 5791 5791 5791 5792 5792 5792 5793 5793 5793 5792 5792 5792 5792 5792 5792 5792 5792 5792 5791 5791 5791 5790 5790 5790 5790 5790 5789 5789 5788 5788 5788 5787 5788 5788 5789 5789
5787 5786 5786 5786 5785 5785 5786 5786 5786 5787 5787 5787 5786 5786 5786 5786 5786 5786 5786 5785 5785 5785 5785 5784 5784 5784 5784 5783 5783 5783 5782 5781 5781 5781 5780 5780 5781 5782
5781 5781 5780 5780 5780 5779 5779 5780 5780 5780 5781 5780 5780 5780 5780 5780 5779 5779 5779 5779 5779 5779 5778 5778 5778 5778 5778 5777 5776 5776 5776 5775 5774 5774 5773 5773 5773 5774
5775 5775 5774 5774 5774 5773 5773 5773 5773 5774 5774 5774 5774 5773 5773 5773 5773 5773 5772 5772 5772 5772 5772 5771 5771 5771 5771 5770 5770 5769 5769 5768 5767 5767 5766 5765 5764 5765
5769 5769 5768 5768 5767 5767 5767 5767 5767 5767 5767 5767 5767 5767 5767 5766 5766 5766 5765 5765 5765 5764 5764 5764 5764 5764 5763 5763 5763 5762 5762 5761 5760 5760 5758 5757 5757 5757
5763 5762 5762 5761 5761 5761 5760 5760 5760 5760 5760 5760 5760 5760 5760 5759 5759 5759 5758 5757 5757 5757 5757 5756 5756 5756 5756 5756 5756 5755 5754 5754 5753 5753 5751 5750 5749 5750
5757 5756 5755 5755 5754 5754 5753 5753 5753 5753 5753 5753 5753 5753 5752 5752 5752 5751 5751 5750 5750 5749 5749 5748 5748 5748 5748 5748 5748 5747 5747 5746 5746 5745 5744 5744 5743 5743
5750 5749 5748 5748 5747 5747 5746 5746 5745 5745 5745 5745 5745 5745 5745 5744 5744 5743 5743 5742 5742 5742 5741 5740 5739 5739 5739 5739 5739 5739 5739 5739 5739 5739 5738 5738 5738 5738
5744 5743 5741 5740 5740 5739 5739 5738 5738 5737 5738 5738 5737 5737 5737 5737 5736 5735 5734 5734 5733 5733 5732 5732 5731 5730 5730 5730 5730 5731 5731 5731 5731 5731 5731 5731 5731 5732
5737 5735 5734 5733 5732 5732 5731 5731 5730 5730 5730 5729 5729 5729 5729 5728 5728 5727 5726 5725 5725 5724 5723 5723 5722 5722 5721 5721 5721 5721 5722 5722 5723 5723 5723 5724 5724 5724
5729 5727 5726 5726 5725 5724 5723 5723 5722 5722 5721 5721 5721 5720 5720 5719 5719 5718 5717 5717 5716 5715 5714 5713 5713 5712 5712 5712 5712 5712 5713 5713 5714 5714 5714 5715 5715 5716
5721 5720 5718 5717 5716 5715 5715 5714 5713 5713 5712 5712 5712 5711 5711 5710 5709 5708 5708 5707 5706 5705 5704 5704 5703 5702 5703 5703 5703 5703 5703 5703 5704 5705 5705 5705 5706 5706
5714 5712 5710 5709 5707 5706 5705 5705 5704 5704 5703 5703 5702 5702 5702 5701 5700 5699 5697 5696 5696 5695 5694 5693 5693 5692 5692 5693 5694 5694 5694 5694 5694 5695 5694 5695 5695 5696
5706 5704 5702 5700 5698 5697 5696 5695 5694 5694 5693 5693 5693 5692 5692 5691 5690 5688 5687 5686 5685 5684 5683 5683 5683 5683 5683 5683 5684 5684 5684 5684 5684 5684 5684 5684 5684 5684
5697 5695 5693 5691 5689 5687 5686 5685 5684 5683 5683 5683 5682 5681 5681 5680 5679 5678 5677 5676 5675 5674 5673 5673 5673 5673 5673 5674 5674 5674 5674 5674 5674 5674 5673 5673 5674 5674
5688 5686 5683 5681 5679 5677 5676 5674 5673 5673 5672 5672 5671 5670 5670 5669 5668 5667 5666 5666 5665 5664 5663 5662 5662 5662 5663 5663 5663 5663 5663 5664 5664 5664 5663 5663 5663 5663
5679 5677 5674 5672 5670 5667 5666 5664 5663 5662 5661 5661 5660 5660 5659 5658 5657 5656 5655 5655 5654 5654 5653 5652 5651 5651 5652 5652 5653 5653 5653 5653 5653 5653 5654 5654 5654 5653
5670 5668 5665 5663 5660 5658 5656 5654 5653 5652 5651 5650 5650 5649 5648 5647 5646 5645 5644 5643 5643 5643 5642 5642 5641 5641 5641 5641 5642 5642 5642 5643 5643 5643 5644 5644 5644 5644
5660 5658 5656 5653 5651 5648 5646 5644 5643 5641 5640 5639 5638 5638 5637 5636 5635 5634 5633 5633 5632 5632 5631 5631 5631 5630 5631 5632 5632 5631 5632 5632 5633 5633 5634 5634 5635 5634
5650 5648 5646 5643 5641 5638 5636 5634 5632 5631 5629 5628 5627 5626 5625 5624 5624 5623 5622 5622 5621 5621 5621 5620 5620 5620 5621 5621 5621 5622 5622 5622 5623 5623 5624 5624 5624 5625
5641 5638 5636 5633 5631 5629 5626 5624 5622 5620 5618 5617 5615 5615 5614 5613 5613 5612 5612 5611 5611 5611 5611 5610 5610 5610 5610 5611 5612 5612 5611 5611 5612 5612 5613 5614 5614 5615
5630 5628 5626 5624 5621 5619 5616 5614 5611 5609 5608 5606 5605 5604 5602 5602 5601 5601 5601 5601 5600 5600 5600 5600 5599 5600 5600 5601 5601 5602 5602 5601 5601 5601 5602 5603 5603 5604
5620 5618 5616 5613 5611 5608 5606 5604 5601 5599 5597 5596 5594 5593 5591 5590 5590 5590 5590 5590 5589 5589 5589 5589 5589 5589 5590 5590 5591 5591 5591 5591 5591 5591 5591 5591 5591 5591
Wind_Speed
18 19 19 19 19 20 20 20 21 21 20 21 21 21 20 21 21 21 21 21 21 20 20 20 20 20 21 21 21 22 22 22 23 23 24 24 23 23
18 19 19 20 20 20 20 20 21 21 21 21 21 22 22 22 22 22 22 22 22 22 21 21 21 21 21 21 22 22 22 22 23 24 24 25 25 24
19 20 20 21 21 21 21 21 21 21 22 22 22 22 22 22 22 23 23 24 24 23 22 22 22 22 22 22 23 23 23 23 23 24 25 25 26 26
20 21 21 21 21 21 21 22 22 22 23 22 22 23 23 23 23 24 24 24 25 25 25 24 23 23 23 23 23 23 23 23 24 24 24 24 25 25
21 21 22 22 22 22 23 23 23 24 24 23 23 24 24 24 24 24 24 25 25 25 25 25 25 25 24 24 24 24 24 24 24 24 24 24 25 25
22 22 23 23 23 24 24 24 24 25 25 24 24 25 25 25 25 25 25 26 26 26 26 26 26 26 25 25 25 25 25 24 24 24 24 24 23 24
23 23 24 24 24 24 24 25 25 25 25 25 25 26 26 26 26 26 26 26 27 27 27 27 27 27 27 26 26 26 25 25 25 24 24 23 23 23
24 24 25 25 25 25 25 26 26 26 25 25 25 26 26 26 26 26 27 27 27 27 28 28 28 28 29 28 28 28 27 27 26 25 24 24 24 24
25 25 25 26 26 26 26 26 26 25 26 26 26 26 27 27 27 27 27 28 28 29 29 29 28 29 29 29 29 29 28 28 27 26 25 25 25 25
26 26 26 26 26 26 26 26 26 26 27 27 27 27 28 28 28 28 28 29 29 30 30 30 29 29 29 29 30 30 29 29 28 27 27 27 27 26
26 26 26 26 26 26 27 27 27 28 28 28 28 29 29 29 29 29 29 29 30 30 30 30 30 30 30 30 30 30 30 30 29 29 28 28 27 27
26 26 26 27 27 27 28 28 28 29 30 30 30 30 30 30 30 30 31 31 31 31 31 32 31 31 31 30 31 31 30 30 30 30 30 29 29 29
27 27 28 28 29 29 30 29 29 30 30 30 31 31 31 31 32 32 32 32 32 31 32 32 31 31 31 31 31 31 30 30 30 30 30 31 31 31
28 28 29 29 30 31 31 31 31 31 31 31 31 32 32 32 32 32 32 32 32 32 32 32 32 32 31 31 31 31 31 31 31 31 31 31 31 31
29 29 29 30 30 31 32 32 32 32 32 32 33 33 33 33 33 33 33 33 33 33 33 33 33 33 32 32 31 32 32 32 32 31 31 31 31 32
30 30 31 31 31 32 32 32 33 33 33 33 33 33 34 34 34 34 34 33 33 33 34 34 34 34 33 33 33 32 32 32 32 32 31 31 31 32
32 32 32 32 32 32 33 33 33 33 33 33 33 33 33 33 34 34 34 34 33 33 33 34 34 34 34 34 34 33 32 32 32 32 31 31 30 31
33 32 33 33 33 33 33 33 33 33 33 33 34 34 34 34 34 34 34 34 33 33 33 33 33 33 33 33 33 33 32 32 32 32 31 31 30 31
34 33 33 33 33 33 33 33 33 33 34 34 34 34 34 34 34 34 34 34 33 33 33 33 33 33 32 32 32 33 32 32 32 31 31 30 30 30
34 34 34 34 34 34 33 33 33 33 34 34 34 34 34 34 33 34 34 33 33 33 32 32 32 32 32 31 31 32 32 31 31 31 31 31 31 31
33 33 34 34 34 33 33 33 33 34 34 34 34 34 34 34 33 33 33 33 32 32 32 32 32 32 32 32 31 31 31 31 32 32 32 32 32 32
33 33 34 34 34 33 33 33 33 33 33 33 33 33 34 34 34 34 33 33 33 33 33 33 33 33 33 32 31 31 32 32 32 32 33 33 33 33
34 34 34 33 34 33 34 34 34 33 33 33 33 33 33 34 34 34 34 34 34 34 34 34 34 34 34 34 33 32 32 32 32 32 33 34 34 34
Wind_Direction
279 278 277 275 273 270 270 269 269 269 269 271 271 271 272 273 272 271 271 272 273 272 272 272 272 272 273 272 271 271 271 270 269 269 268 266 265 264
281 280 278 277 276 273 272 271 270 270 270 271 271 271 271 272 272 271 271 271 272 272 272 272 272 272 272 272 272 273 273 272 270 270 269 267 265 264
282 280 278 277 277 275 274 273 272 271 271 271 272 273 271 272 272 272 272 271 270 270 271 272 271 272 272 272 272 272 273 272 272 273 271 269 266 264
284 281 280 279 277 276 275 275 274 272 271 272 272 272 272 273 274 274 274 273 271 270 270 271 271 273 273 274 273 272 273 273 272 273 273 271 268 264
285 284 281 280 279 277 277 277 275 274 273 272 272 272 274 274 275 274 274 274 273 272 272 272 272 273 274 274 274 273 273 272 272 274 274 273 268 264
284 284 281 279 279 278 277 277 276 275 274 272 272 273 275 275 274 274 274 274 274 273 273 273 273 273 272 273 273 273 271 271 273 274 274 273 268 263
285 285 283 281 279 279 278 277 277 275 274 273 272 275 276 276 276 274 273 273 273 273 273 273 274 273 272 271 271 271 271 271 271 272 272 272 270 265
287 286 284 281 280 280 281 280 279 276 275 274 274 275 278 278 278 276 275 273 274 274 274 274 274 273 273 272 270 270 270 271 271 271 272 272 271 266
288 287 286 284 282 281 281 281 279 276 275 276 274 275 278 278 278 277 276 275 274 274 275 274 274 273 271 270 269 270 270 270 270 269 270 271 270 267
289 287 285 284 283 282 282 281 278 277 276 275 275 276 277 278 278 278 277 276 276 276 275 274 273 273 271 270 269 269 269 269 269 268 269 269 268 265
291 289 286 285 284 283 283 282 278 277 277 275 276 277 278 278 279 279 278 278 277 276 275 275 272 272 271 271 270 269 268 269 268 268 268 267 266 266
292 291 287 284 284 284 284 283 279 278 277 276 276 277 277 278 279 279 280 279 278 277 275 275 274 272 270 269 269 269 270 270 269 268 268 268 266 265
293 291 288 286 284 284 283 282 280 279 278 277 276 276 277 278 279 279 279 279 278 278 278 277 275 273 272 270 267 268 269 270 269 268 269 269 268 267
292 291 289 287 286 285 283 282 280 279 279 278 276 276 276 277 278 278 278 277 277 277 278 278 276 273 272 271 268 267 268 270 270 269 270 270 270 269
292 291 290 289 288 286 285 283 280 278 279 278 277 276 276 277 277 277 277 276 277 276 274 275 275 273 271 270 270 270 270 269 269 269 269 269 270 269
293 293 292 291 289 287 285 283 281 279 278 278 278 277 277 277 277 277 276 276 275 275 274 273 273 272 271 269 270 272 272 269 268 268 269 269 269 269
291 292 293 292 290 289 286 284 282 279 277 277 278 278 278 278 278 278 277 276 275 274 273 273 273 273 272 271 270 271 270 269 267 267 269 270 271 271
291 292 293 292 291 290 289 285 283 281 279 278 278 278 278 278 278 277 277 276 275 274 274 273 271 271 271 270 269 269 269 269 269 268 268 268 270 271
290 292 293 293 292 291 290 287 285 283 281 279 279 278 278 277 277 276 277 276 274 274 274 272 271 270 271 270 268 268 268 268 269 268 267 267 267 268
290 290 292 292 292 291 291 289 286 284 282 280 279 278 278 278 277 276 277 276 274 273 273 273 271 270 270 269 268 267 266 267 267 268 267 266 267 268
291 291 291 292 292 292 291 290 288 284 283 282 281 279 278 277 276 276 276 276 274 273 273 272 271 270 270 269 269 267 267 268 268 269 268 267 266 267
291 290 291 291 292 292 292 292 289 286 284 283 282 281 279 278 276 275 275 275 273 272 272 272 271 271 270 270 269 268 267 268 269 270 271 270 269 267
292 290 290 291 292 293 293 291 290 288 286 284 283 282 281 280 278 276 275 274 273 272 270 270 270 269 270 269 269 269 268 268 269 271 273 273 271 268